FW1542 Weather Reports


time (UTC)temp
C
wind
direction
speed
KPH
gust
KPH
rain 1hr
cm
rain 24hr
cm
rain mn
cm
humidity
%
barometer
mb
20260904013057 31 122 14.5 25.7 0.00 0.00 0.00 60 1010.4
20260904013031 31 122 16.1 25.7 0.00 0.00 0.00 61 1012.1
20260904011554 32 143 19.3 32.2 0.00 0.00 0.00 58 1010.2
20260904011531 32 152 17.7 32.2 0.00 0.00 0.00 59 1011.8
20260904010100 33 79 11.3 30.6 0.00 0.00 0.00 55 1010.0
20260904010031 33 79 11.3 27.4 0.00 0.00 0.00 56 1011.6
20260904004559 34 115 17.7 33.8 0.00 0.00 0.00 52 1009.8
20260904004530 34 115 19.3 33.8 0.00 0.00 0.00 53 1011.3
20260904003101 35 88 11.3 25.7 0.00 0.00 0.00 49 1009.4
20260904003030 35 78 12.9 25.7 0.00 0.00 0.00 50 1011.0
20260904001601 36 117 8.0 19.3 0.00 0.00 0.00 47 1009.3
20260904001530 36 82 9.7 19.3 0.00 0.00 0.00 47 1010.9
20260904000028 36 84 9.7 17.7 0.00 0.00 0.00 45 1010.8
20260903234555 36 0 6.4 14.5 0.00 0.00 0.00 43 1009.1
20260903234527 36 64 6.4 14.5 0.00 0.00 0.00 44 1010.6
20260903233054 36 115 6.4 20.9 0.00 0.00 0.00 44 1009.1
20260903233033 36 69 6.4 20.9 0.00 0.00 0.00 44 1010.7
20260903231555 36 146 8.0 17.7 0.00 0.00 0.00 43 1009.1
20260903231526 36 140 9.7 16.1 0.00 0.00 0.00 43 1010.7
20260903230027 37 129 8.0 20.9 0.00 0.00 0.00 44 1010.6
20260903224604 36 0 6.4 20.9 0.00 0.00 0.00 43 1009.0
20260903224533 36 54 3.2 20.9 0.00 0.00 0.00 44 1010.5
20260903223102 37 128 8.0 19.3 0.00 0.00 0.00 45 1009.0
20260903223022 37 154 8.0 19.3 0.00 0.00 0.00 45 1010.6
20260903221558 37 116 4.8 20.9 0.00 0.00 0.00 43 1009.0
20260903221540 37 149 4.8 17.7 0.00 0.00 0.00 44 1010.7
20260903220058 37 0 3.2 14.5 0.00 0.00 0.00 44 1009.2
20260903220020 37 136 1.6 14.5 0.00 0.00 0.00 44 1010.7
20260903214602 37 122 6.4 16.1 0.00 0.00 0.00 44 1009.4
20260903214519 37 116 4.8 16.1 0.00 0.00 0.00 44 1010.9
20260903213100 38 36 8.0 14.5 0.00 0.00 0.00 43 1009.5
20260903213021 38 103 9.7 14.5 0.00 0.00 0.00 43 1011.0
20260903211556 38 132 8.0 19.3 0.00 0.00 0.00 43 1009.6
20260903211513 38 188 11.3 19.3 0.00 0.00 0.00 44 1011.1
20260903210055 37 0 6.4 16.1 0.00 0.00 0.00 43 1010.0
20260903210014 37 171 4.8 16.1 0.00 0.00 0.00 44 1011.5
20260903204556 37 196 4.8 19.3 0.00 0.00 0.00 45 1010.0
20260903204510 37 197 4.8 19.3 0.00 0.00 0.00 45 1011.7
20260903203059 37 155 6.4 16.1 0.00 0.00 0.00 45 1010.2
20260903203010 37 86 6.4 16.1 0.00 0.00 0.00 45 1011.8
20260903201558 37 163 8.0 16.1 0.00 0.00 0.00 45 1010.4
20260903201504 37 228 8.0 16.1 0.00 0.00 0.00 46 1012.0
20260903200057 36 142 8.0 20.9 0.00 0.00 0.00 48 1010.6
20260903200002 36 135 8.0 20.9 0.00 0.00 0.00 49 1012.1
20260903194559 36 156 9.7 20.9 0.00 0.00 0.00 48 1012.2
20260903194553 36 142 4.8 17.7 0.00 0.00 0.00 47 1010.8
20260903193100 36 128 9.7 20.9 0.00 0.00 0.00 47 1011.0
20260903193056 36 221 8.0 19.3 0.00 0.00 0.00 48 1012.7
20260903191554 36 112 3.2 16.1 0.00 0.00 0.00 49 1011.4
20260903190053 36 0 4.8 16.1 0.00 0.00 0.00 53 1011.7
20260903184556 36 181 4.8 14.5 0.00 0.00 0.00 53 1011.9
20260903184548 36 164 3.2 14.5 0.00 0.00 0.00 53 1013.3
20260903183055 35 184 4.8 14.5 0.00 0.00 0.00 55 1012.1
20260903183044 35 169 3.2 14.5 0.00 0.00 0.00 56 1013.6
20260903181553 35 0 3.2 20.9 0.00 0.00 0.00 57 1012.4
20260903181541 35 209 3.2 17.7 0.00 0.00 0.00 57 1014.2
20260903180116 35 231 3.2 16.1 0.00 0.00 0.00 59 1012.5
20260903180105 35 160 3.2 14.5 0.00 0.00 0.00 60 1014.2
20260903174557 34 153 9.7 17.7 0.00 0.00 0.00 60 1012.9
20260903174536 34 142 8.0 17.7 0.00 0.00 0.00 60 1014.5
20260903173058 33 176 6.4 20.9 0.00 0.00 0.00 61 1012.9
20260903173033 33 176 3.2 19.3 0.00 0.00 0.00 61 1014.7
20260903171554 33 110 1.6 16.1 0.00 0.00 0.00 66 1013.2
20260903171530 33 110 0.0 16.1 0.00 0.00 0.00 67 1014.8
20260903170059 33 163 3.2 14.5 0.00 0.00 0.00 66 1013.4
20260903170028 33 165 1.6 14.5 0.00 0.00 0.00 67 1014.9
20260903164601 32 234 4.8 14.5 0.00 0.00 0.00 66 1013.5
20260903164524 32 209 4.8 12.9 0.00 0.00 0.00 66 1015.0
20260903163056 32 207 3.2 12.9 0.00 0.00 0.00 69 1013.5
20260903163037 32 230 4.8 12.9 0.00 0.00 0.00 70 1015.2
20260903161551 32 182 4.8 12.9 0.00 0.00 0.00 69 1013.7
20260903161520 32 192 3.2 11.3 0.00 0.00 0.00 69 1015.2
20260903160107 31 178 4.8 14.5 0.00 0.00 0.00 71 1013.6
20260903160017 31 167 1.6 12.9 0.00 0.00 0.00 72 1015.1
20260903154554 31 199 3.2 12.9 0.00 0.00 0.00 72 1013.6
20260903154516 31 196 3.2 11.3 0.00 0.00 0.00 73 1015.1
20260903153054 30 0 6.4 14.5 0.00 0.00 0.00 74 1013.6
20260903153012 30 238 6.4 14.5 0.00 0.00 0.00 75 1015.2
20260903151556 29 166 4.8 12.9 0.00 0.00 0.00 79 1013.8
20260903151508 29 178 4.8 11.3 0.00 0.00 0.00 79 1015.1
20260903150058 28 249 4.8 17.7 0.00 0.00 0.00 80 1013.7
20260903150008 28 219 6.4 17.7 0.00 0.00 0.00 81 1015.3
20260903144554 28 201 3.2 17.7 0.00 0.00 0.00 80 1013.8
20260903144507 28 182 3.2 12.9 0.00 0.00 0.00 80 1015.3
20260903143101 28 196 6.4 17.7 0.00 0.00 0.00 82 1013.7
20260903143011 28 188 8.0 16.1 0.00 0.00 0.00 82 1015.3
20260903141557 27 170 4.8 12.9 0.00 0.00 0.00 84 1013.8
20260903141506 27 184 3.2 12.9 0.00 0.00 0.00 84 1015.3
20260903140057 27 171 4.8 12.9 0.00 0.00 0.00 85 1013.7
20260903140005 27 263 4.8 11.3 0.00 0.00 0.00 86 1015.3
20260903134554 27 126 1.6 11.3 0.00 0.00 0.00 87 1014.0
20260903134505 27 89 1.6 11.3 0.00 0.00 0.00 87 1015.5
20260903133051 26 167 3.2 11.3 0.00 0.00 0.00 87 1013.9
20260903133004 26 181 3.2 11.3 0.00 0.00 0.00 88 1015.4
20260903131557 26 175 3.2 12.9 0.00 0.00 0.00 88 1014.0
20260903131503 26 151 1.6 12.9 0.00 0.00 0.00 88 1015.3
20260903130116 26 215 4.8 11.3 0.00 0.00 0.00 88 1013.8
20260903130011 26 163 4.8 11.3 0.00 0.00 0.00 89 1015.2
20260903124550 26 178 1.6 14.5 0.00 0.00 0.00 89 1013.6
20260903124503 26 175 1.6 12.9 0.00 0.00 0.00 89 1015.2
20260903123106 26 167 0.0 8.0 0.00 0.00 0.00 89 1015.1
20260903123101 26 0 0.0 14.5 0.00 0.00 0.00 89 1013.6
20260903121600 26 186 1.6 9.7 0.00 0.00 0.00 89 1015.0
20260903121557 26 207 1.6 9.7 0.00 0.00 0.00 89 1013.4
20260903120106 26 178 0.0 8.0 0.00 0.00 0.00 89 1014.9
20260903120058 26 0 0.0 11.3 0.00 0.00 0.00 88 1013.2
20260903114603 26 219 1.6 14.5 0.00 0.00 0.00 88 1013.3
20260903114600 26 210 3.2 11.3 0.00 0.00 0.00 89 1014.9
20260903113059 26 0 1.6 11.3 0.00 0.00 0.00 88 1013.2
20260903113056 26 175 1.6 11.3 0.00 0.00 0.00 88 1014.8
20260903111613 26 202 3.2 14.5 0.00 0.00 0.00 88 1013.1
20260903111610 26 165 3.2 12.9 0.00 0.00 0.00 88 1014.7
20260903110112 26 193 0.0 11.3 0.00 0.00 0.00 88 1014.8
20260903104556 26 167 3.2 17.7 0.00 0.00 0.00 87 1013.4
20260903104552 26 167 3.2 9.7 0.00 0.00 0.00 88 1014.9
20260903103056 26 0 3.2 14.5 0.00 0.00 0.00 87 1013.2
20260903103048 26 130 0.0 9.7 0.00 0.00 0.00 88 1014.8
20260903101604 26 223 3.2 14.5 0.00 0.00 0.00 87 1013.1
20260903101545 26 210 3.2 12.9 0.00 0.00 0.00 88 1014.7
20260903100053 26 161 3.2 14.5 0.00 0.00 0.00 87 1013.1
20260903100045 26 176 4.8 11.3 0.00 0.00 0.00 88 1014.7
20260903094559 26 0 3.2 11.3 0.00 0.00 0.00 87 1013.2
20260903094552 26 128 3.2 11.3 0.00 0.00 0.00 88 1014.8
20260903093056 26 162 4.8 17.7 0.00 0.00 0.00 87 1013.2
20260903093043 26 146 4.8 14.5 0.00 0.00 0.00 87 1014.7
20260903091553 26 188 3.2 12.9 0.00 0.00 0.00 87 1013.1
20260903091541 26 183 4.8 12.9 0.00 0.00 0.00 87 1014.8
20260903090050 26 169 3.2 14.5 0.00 0.00 0.00 87 1012.9
20260903090042 26 181 1.6 12.9 0.00 0.00 0.00 88 1014.6
20260903084557 26 142 4.8 12.9 0.00 0.00 0.00 87 1013.1
20260903084541 26 142 4.8 9.7 0.00 0.00 0.00 88 1014.8
20260903083059 26 163 4.8 14.5 0.00 0.00 0.00 87 1013.2
20260903083041 26 155 4.8 14.5 0.00 0.00 0.00 88 1014.8
20260903081553 26 163 4.8 14.5 0.00 0.00 0.00 87 1013.1
20260903081545 26 162 3.2 14.5 0.00 0.00 0.00 87 1014.7
20260903080054 27 173 3.2 14.5 0.00 0.00 0.00 85 1012.9
20260903080038 27 169 4.8 14.5 0.00 0.00 0.00 86 1014.7
20260903074607 27 148 4.8 11.3 0.00 0.00 0.00 84 1013.1
20260903074540 27 149 4.8 12.9 0.00 0.00 0.00 84 1014.8
20260903073055 27 174 3.2 14.5 0.00 0.00 0.00 83 1013.1
20260903073038 27 163 4.8 14.5 0.00 0.00 0.00 83 1014.7
20260903071556 27 196 8.0 14.5 0.00 0.00 0.00 82 1013.2
20260903071534 27 196 6.4 14.5 0.00 0.00 0.00 82 1014.8
20260903070052 27 84 3.2 16.1 0.00 0.00 0.00 79 1013.3
20260903070036 27 84 3.2 14.5 0.00 0.00 0.00 80 1015.0
20260903064601 27 125 9.7 19.3 0.00 0.00 0.00 79 1013.4
20260903064530 27 125 8.0 19.3 0.00 0.00 0.00 79 1015.1
20260903063054 27 175 6.4 22.5 0.00 0.00 0.00 78 1013.3
20260903063028 27 179 8.0 22.5 0.00 0.00 0.00 78 1015.1
20260903061559 28 142 4.8 16.1 0.00 0.00 0.00 78 1013.4
20260903061536 28 146 4.8 16.1 0.00 0.00 0.00 78 1015.0
20260903060051 28 166 6.4 19.3 0.00 0.00 0.00 77 1013.2
20260903060024 28 141 6.4 17.7 0.00 0.00 0.00 78 1015.0
20260903054557 28 153 8.0 25.7 0.00 0.00 0.00 77 1013.0
20260903054540 28 189 6.4 25.7 0.00 0.00 0.00 77 1014.7
20260903053108 28 136 11.3 24.1 0.00 0.00 0.00 76 1013.2
20260903053019 28 107 9.7 24.1 0.00 0.00 0.00 76 1014.9
20260903051603 29 169 6.4 17.7 0.00 0.00 0.00 74 1013.1
20260903051517 29 170 6.4 14.5 0.00 0.00 0.00 74 1014.8
20260903050107 29 136 4.8 20.9 0.00 0.00 0.00 73 1013.0
20260903050014 29 136 4.8 17.7 0.00 0.00 0.00 73 1014.6
20260903044558 30 144 9.7 22.5 0.00 0.00 0.00 70 1013.0
20260903044513 30 144 9.7 22.5 0.00 0.00 0.00 70 1014.5
20260903043051 30 127 8.0 20.9 0.00 0.00 0.00 66 1012.9
20260903043011 30 154 9.7 19.3 0.00 0.00 0.00 67 1014.3
20260903041604 31 171 12.9 33.8 0.00 0.00 0.00 64 1013.0
20260903041514 31 148 12.9 30.6 0.00 0.00 0.00 64 1014.3
20260903040059 31 118 8.0 30.6 0.00 0.00 0.00 60 1012.8
20260903040011 31 186 9.7 30.6 0.00 0.00 0.00 60 1014.2
20260903034554 31 109 14.5 30.6 0.00 0.00 0.00 64 1012.6
20260903034510 31 172 14.5 30.6 0.00 0.00 0.00 65 1014.0
20260903033107 31 186 9.7 20.9 0.00 0.00 0.00 63 1012.1
20260903033009 31 123 9.7 20.9 0.00 0.00 0.00 63 1013.6
20260903031555 32 143 9.7 24.1 0.00 0.00 0.00 62 1011.8
20260903031508 32 157 9.7 24.1 0.00 0.00 0.00 62 1013.5
20260903030057 31 165 9.7 17.7 0.00 0.00 0.00 57 1011.7
20260903030018 31 134 11.3 17.7 0.00 0.00 0.00 57 1013.2
20260903024552 31 123 3.2 6.4 0.00 0.00 0.00 55 1011.3
20260903024508 31 123 3.2 6.4 0.00 0.00 0.00 56 1013.0
20260903023057 31 126 3.2 8.0 0.00 0.00 0.00 56 1011.0
20260903023010 31 141 4.8 8.0 0.00 0.00 0.00 56 1012.8
20260903021608 31 128 1.6 4.8 0.00 0.00 0.00 54 1011.0
20260903021509 31 129 1.6 4.8 0.00 0.00 0.00 55 1012.7
20260903020056 32 130 1.6 4.8 0.00 0.00 0.00 54 1010.9
20260903020007 32 130 1.6 4.8 0.00 0.00 0.00 54 1012.5
20260903014554 32 130 1.6 4.8 0.00 0.00 0.00 52 1010.6
20260903014507 32 130 1.6 4.8 0.00 0.00 0.00 53 1012.3